Location: Madrid
(40.4167°N, 3.7036°W)
Time: 19:27:46
(UTC+00:00)

ISS - Pass Details

Date: 16 October 2025
Orbit: 414 x 421 km, 51.6° (Epoch: 07 November)

Event Time Altitude Azimuth Distance (km) Brightness Sun altitude
Exits shadow 05:02:28 11° 196° (SSW) 1,410 -1.3 -16.8°
Maximum altitude 05:05:14 30° 135° (SE) 781 -2.0 -16.3°
Drops below altitude 10° 05:08:13 10° 72° (ENE) 1,503 0.3 -15.7°
Sets 05:10:29 0° 62° (ENE) 2,373 1.2 -15.3°
